Date String (YYYY-MM-DD hh:mm:ss) UTC,Instrument flags,Ambient pressure (hPa),Sample flow (lpm),Bypass flow (lpm),Sample temperature (°C),Ambient temperature (°C),ASC tube jacket temperature (°C),LED temperature (°C),Box temperature (°C),Sample RH (%),Span deviation,Mass concentration (μg/m³),Mass concentration (μg/m³),Mass concentration (μg/m³)
DateTimeUTC,F1_M11,P_M11,Q1_M11,Q2_M11,T1_M11,T2_M11,T3_M11,T4_M11,T5_M11,U1_M11,ZSPAN_M11,X2_M11,X0_M11,X1_M11
2021-10-18 09:00:00,,0822.6,5.00,0.00,29.8,28.9,00.0,38.9,31.5,09.2,0000.0,0003.79,0010.35,0003.29
2021-10-18 09:01:00,,0822.6,4.99,0.00,29.8,28.9,00.0,38.9,31.5,09.2,0000.0,0003.74,0009.90,0003.28
2021-10-18 09:02:00,,0822.6,4.99,0.00,29.8,28.9,00.0,38.9,31.5,09.3,0000.0,0003.71,0009.48,0003.26
2021-10-18 09:03:00,,0822.6,5.01,0.00,29.8,28.9,00.0,38.9,31.5,09.2,0000.0,0003.66,0009.17,0003.22
2021-10-18 09:04:00,,0822.6,5.00,0.00,29.8,28.9,00.0,38.9,31.5,09.2,0000.0,0003.64,0008.43,0003.21
2021-10-18 09:05:00,,0822.6,5.00,0.00,29.8,28.9,00.0,38.9,31.5,09.2,0000.0,0003.68,0007.98,0003.22
2021-10-18 09:06:00,,0822.6,5.00,0.00,29.8,28.9,00.0,38.9,31.5,09.2,0000.0,0003.68,0007.94,0003.21
2021-10-18 09:07:00,,0822.5,4.99,0.00,29.8,28.9,00.0,38.9,31.5,09.2,0000.0,0003.64,0007.90,0003.20
2021-10-18 09:08:00,,0822.6,5.00,0.00,29.8,28.9,00.0,38.9,31.5,09.1,0000.0,0003.63,0007.95,0003.18
2021-10-18 09:09:00,,0822.6,5.00,0.00,29.8,28.9,00.0,38.9,31.5,09.1,0000.0,0003.64,0006.94,0003.19
2021-10-18 09:10:00,,0822.5,5.01,0.00,29.8,28.9,00.0,38.9,31.5,09.1,0000.0,0003.68,0006.72,0003.18
2021-10-18 09:11:00,,0822.5,5.01,0.00,29.8,28.9,00.0,38.9,31.5,09.1,0000.0,0003.69,0006.90,0003.17
2021-10-18 09:12:00,,0822.5,4.99,0.00,29.8,28.9,00.0,38.9,31.5,09.1,0000.0,0003.68,0007.10,0003.15
2021-10-18 09:13:00,,0822.5,5.00,0.00,29.8,28.9,00.0,38.9,31.5,09.2,0000.0,0003.69,0007.14,0003.14
2021-10-18 09:14:00,,0822.6,4.99,0.00,29.8,28.9,00.0,38.9,31.5,09.1,0000.0,0003.69,0007.22,0003.13
2021-10-18 09:15:00,,0822.6,5.02,0.00,29.8,28.9,00.0,38.9,31.5,09.1,0000.0,0003.66,0007.21,0003.10
2021-10-18 09:16:00,,0822.6,5.01,0.00,29.8,28.9,00.0,38.9,31.5,09.2,0000.0,0003.61,0007.46,0003.06
2021-10-18 09:17:00,,0822.6,5.00,0.00,29.8,28.9,00.0,38.9,31.5,09.3,0000.0,0003.62,0007.47,0003.06
2021-10-18 09:18:00,,0822.5,5.00,0.00,29.8,28.9,00.0,38.9,31.5,09.2,0000.0,0003.67,0007.98,0003.09
2021-10-18 09:19:00,,0822.5,5.01,0.00,29.8,28.9,00.0,38.9,31.5,09.2,0000.0,0003.67,0008.06,0003.10
2021-10-18 09:20:00,,0822.4,5.00,0.00,29.8,28.9,00.0,38.9,31.5,09.4,0000.0,0003.66,0007.99,0003.11
2021-10-18 09:21:00,,0822.4,4.99,0.00,29.8,28.9,00.0,38.9,31.5,09.5,0000.0,0003.67,0008.02,0003.13
2021-10-18 09:22:00,,0822.4,5.01,0.00,29.8,28.9,00.0,39.0,31.5,09.4,0000.0,0003.67,0008.59,0003.15
2021-10-18 09:23:00,,0822.4,5.00,0.00,29.8,28.9,00.0,39.0,31.6,09.4,0000.0,0003.69,0008.72,0003.18
2021-10-18 09:24:00,,0822.4,4.99,0.00,29.8,28.9,00.0,38.9,31.6,09.4,0000.0,0003.75,0009.59,0003.21
2021-10-18 09:25:00,,0822.5,5.02,0.00,29.8,28.9,00.0,38.9,31.6,09.4,0000.0,0003.81,0010.11,0003.24
2021-10-18 09:26:00,,0822.4,5.00,0.00,29.8,28.9,00.0,38.9,31.6,09.4,0000.0,0003.85,0010.20,0003.27
2021-10-18 09:27:00,,0822.4,5.00,0.00,29.8,28.9,00.0,38.9,31.5,09.4,0000.0,0003.89,0009.94,0003.29
2021-10-18 09:28:00,,0822.4,5.01,0.00,29.8,28.9,00.0,38.9,31.5,09.4,0000.0,0003.90,0009.85,0003.31
2021-10-18 09:29:00,,0822.4,5.00,0.00,29.8,28.8,00.0,38.9,31.5,09.4,0000.0,0003.92,0009.62,0003.35
2021-10-18 09:30:00,,0822.4,4.98,0.00,29.8,28.8,00.0,38.9,31.5,09.4,0000.0,0003.98,0009.53,0003.39
2021-10-18 09:31:00,,0822.4,5.00,0.00,29.8,28.8,00.0,38.9,31.5,09.4,0000.0,0004.03,0009.88,0003.44
2021-10-18 09:32:00,,0822.4,5.00,0.00,29.8,28.8,00.0,38.9,31.5,09.4,0000.0,0004.03,0010.58,0003.46
2021-10-18 09:33:00,,0822.4,5.00,0.00,29.8,28.8,00.0,38.9,31.5,09.4,0000.0,0004.07,0010.62,0003.49
2021-10-18 09:34:00,,0822.4,5.01,0.00,29.8,28.8,00.0,38.9,31.5,09.4,0000.0,0004.08,0010.49,0003.49
2021-10-18 09:35:00,,0822.4,4.99,0.00,29.8,28.8,00.0,38.9,31.5,09.4,0000.0,0004.06,0009.82,0003.49
2021-10-18 09:36:00,,0822.4,4.99,0.00,29.8,28.8,00.0,38.9,31.4,09.4,0003.0,0004.04,0009.26,0003.49
2021-10-18 09:37:00,,0822.3,5.00,0.00,29.8,28.8,00.0,38.9,31.4,09.4,0003.0,0004.06,0009.53,0003.49
2021-10-18 09:38:00,,0822.4,4.99,0.00,29.8,28.8,00.0,38.9,31.4,09.4,0001.9,0004.08,0009.72,0003.50
2021-10-18 09:39:00,,0822.3,4.99,0.00,29.8,28.8,00.0,38.9,31.5,09.4,0001.8,0004.09,0010.21,0003.52
2021-10-18 09:40:00,,0822.3,5.00,0.00,29.8,28.8,00.0,38.9,31.4,09.4,0000.4,0004.07,0010.14,0003.50
2021-10-18 09:41:00,,0822.2,5.00,0.00,29.7,28.8,00.0,38.9,31.4,09.4,0000.6,0004.02,0009.92,0003.47
2021-10-18 09:42:00,,0822.3,5.00,0.00,29.7,28.8,00.0,38.9,31.4,09.4,0000.0,0003.98,0009.58,0003.44
2021-10-18 09:43:00,,0822.2,5.00,0.00,29.7,28.8,00.0,38.9,31.4,09.5,0000.0,0004.00,0008.85,0003.45
2021-10-18 09:44:00,,0822.2,5.00,0.00,29.7,28.8,00.0,38.9,31.4,09.5,0000.0,0004.01,0008.28,0003.50
2021-10-18 09:45:00,,0822.2,5.00,0.00,29.7,28.8,00.0,38.9,31.4,09.5,-000.6,0004.09,0008.39,0003.57
2021-10-18 09:46:00,,0822.2,5.01,0.00,29.7,28.8,00.0,38.9,31.4,09.5,0000.0,0004.11,0008.84,0003.60
2021-10-18 09:47:00,,0822.2,4.99,0.00,29.7,28.8,00.0,38.9,31.4,09.5,0000.0,0004.12,0008.80,0003.61
2021-10-18 09:48:00,,0822.2,5.00,0.00,29.7,28.8,00.0,38.9,31.4,09.5,0000.0,0004.13,0008.54,0003.65
2021-10-18 09:49:00,,0822.2,5.01,0.00,29.7,28.7,00.0,38.9,31.4,09.5,0000.0,0004.21,0008.59,0003.75
2021-10-18 09:50:00,,0822.2,5.00,0.00,29.7,28.7,00.0,38.9,31.4,09.5,0000.0,0004.32,0008.36,0003.84
2021-10-18 09:51:00,,0822.2,4.99,0.00,29.7,28.7,00.0,38.9,31.4,09.5,-000.7,0004.48,0008.70,0003.98
2021-10-18 09:52:00,,0822.2,5.00,0.00,29.7,28.6,00.0,38.8,31.4,09.5,-001.7,0004.61,0008.93,0004.09
2021-10-18 09:53:00,,0822.2,5.00,0.00,29.6,28.6,00.0,38.8,31.3,09.5,-001.9,0004.68,0009.22,0004.15
2021-10-18 09:54:00,,0822.2,5.00,0.00,29.6,28.6,00.0,38.8,31.3,09.6,-001.8,0004.69,0009.80,0004.15
2021-10-18 09:55:00,,0822.2,5.01,0.00,29.5,28.6,00.0,38.8,31.3,09.6,-001.2,0004.68,0009.91,0004.11
2021-10-18 09:56:00,,0822.2,4.99,0.00,29.5,28.5,00.0,38.8,31.2,09.6,-001.7,0004.65,0009.96,0004.07
2021-10-18 09:57:00,,0822.2,4.99,0.00,29.5,28.5,00.0,38.8,31.2,09.6,-002.3,0004.68,0009.68,0004.10
2021-10-18 09:58:00,,0822.2,5.00,0.00,29.5,28.5,00.0,38.7,31.1,09.7,-002.3,0004.73,0009.85,0004.12
2021-10-18 09:59:00,,0822.2,5.01,0.00,29.4,28.5,00.0,38.7,31.1,09.7,-002.3,0004.73,0009.85,0004.13
